DLH6U EGLL-EDDF

Flight info

Callsign DLH6U
Flight time 0h 58m
Altitude 35000
Route DET L6 DVR UL9 KONAN UL607 SPI T180 NIVNU T847 IMCOM IMCOM1D
Aircraft A320/M-SDE2E3FGIJ1LORWXYZ/HB1

Departure

Time 2026-04-19 04:04
Airport London Heathrow Airport (EGLL)

Arrival

Time 2026-04-19 05:02
Airport Frankfurt Main Airport (EDDF)
Time Latitude Longitude Altitude Speed Heading
2026-04-19 03:32 51.46857 -0.44680 86 ft 0 kts 267°
2026-04-19 03:56 51.46858 -0.44654 91 ft 4 kts 264°
2026-04-19 03:56 51.46863 -0.44611 89 ft 4 kts 254°
2026-04-19 03:56 51.46873 -0.44572 86 ft 4 kts 229°
2026-04-19 03:56 51.46889 -0.44555 86 ft 1 kts 180°
2026-04-19 03:57 51.46894 -0.44555 86 ft 0 kts 180°
2026-04-19 04:00 51.46863 -0.44554 86 ft 7 kts 180°
2026-04-19 04:00 51.46814 -0.44554 89 ft 7 kts 180°
2026-04-19 04:00 51.46771 -0.44554 90 ft 6 kts 180°
2026-04-19 04:00 51.46726 -0.44554 86 ft 8 kts 180°
2026-04-19 04:01 51.46678 -0.44531 87 ft 7 kts 140°
2026-04-19 04:01 51.46667 -0.44298 86 ft 15 kts 89°
2026-04-19 04:01 51.46669 -0.44136 89 ft 13 kts 91°
2026-04-19 04:02 51.46631 -0.44043 90 ft 10 kts 174°
2026-04-19 04:02 51.46568 -0.44049 89 ft 8 kts 184°
2026-04-19 04:02 51.46512 -0.44051 89 ft 8 kts 182°
2026-04-19 04:02 51.46492 -0.44112 88 ft 6 kts 268°
2026-04-19 04:03 51.46492 -0.44125 86 ft 0 kts 269°
2026-04-19 04:03 51.46491 -0.44218 86 ft 34 kts 269°
2026-04-19 04:04 51.46491 -0.45044 89 ft 110 kts 269°
2026-04-19 04:04 51.46485 -0.46588 111 ft 163 kts 270°
2026-04-19 04:04 51.46471 -0.48400 830 ft 161 kts 269°
2026-04-19 04:04 51.46441 -0.50219 1533 ft 170 kts 269°
2026-04-19 04:05 51.46334 -0.52222 1965 ft 193 kts 257°
2026-04-19 04:05 51.45782 -0.54345 2419 ft 221 kts 240°
2026-04-19 04:05 51.44674 -0.56255 2933 ft 251 kts 216°
2026-04-19 04:05 51.42969 -0.57275 3536 ft 274 kts 186°
2026-04-19 04:06 51.41063 -0.56885 4452 ft 281 kts 158°
2026-04-19 04:06 51.39444 -0.55177 5446 ft 281 kts 131°
2026-04-19 04:06 51.38419 -0.52537 6449 ft 280 kts 111°
2026-04-19 04:06 51.37566 -0.49729 7467 ft 283 kts 118°
2026-04-19 04:07 51.36532 -0.47014 8413 ft 288 kts 122°
2026-04-19 04:07 51.35422 -0.44324 9336 ft 292 kts 123°
2026-04-19 04:07 51.34675 -0.42526 9938 ft 294 kts 122°
2026-04-19 04:07 51.33540 -0.39764 10746 ft 303 kts 124°
2026-04-19 04:08 51.32078 -0.37155 11129 ft 327 kts 135°
2026-04-19 04:08 51.30716 -0.34146 11571 ft 344 kts 110°
2026-04-19 04:08 51.30312 -0.30388 12268 ft 347 kts 85°
2026-04-19 04:08 51.30579 -0.26550 13066 ft 349 kts 77°
2026-04-19 04:09 51.30982 -0.22704 13862 ft 354 kts 77°
2026-04-19 04:09 51.31396 -0.18795 14638 ft 359 kts 77°
2026-04-19 04:09 51.31761 -0.14817 15358 ft 365 kts 81°
2026-04-19 04:09 51.31883 -0.10728 16072 ft 372 kts 87°
2026-04-19 04:10 51.31828 -0.06568 16760 ft 377 kts 90°
2026-04-19 04:10 51.31690 -0.02354 17440 ft 381 kts 91°
2026-04-19 04:10 51.31529 0.01904 18097 ft 386 kts 91°
2026-04-19 04:10 51.31381 0.06213 18744 ft 390 kts 89°
2026-04-19 04:11 51.31263 0.10569 19379 ft 394 kts 88°
2026-04-19 04:11 51.31176 0.14971 19999 ft 398 kts 88°
2026-04-19 04:11 51.31111 0.19417 20588 ft 402 kts 87°
2026-04-19 04:11 51.31050 0.23914 21160 ft 407 kts 87°
2026-04-19 04:12 51.30989 0.28456 21716 ft 411 kts 87°
2026-04-19 04:12 51.30919 0.33049 22254 ft 416 kts 87°
2026-04-19 04:12 51.30841 0.37692 22794 ft 420 kts 88°
2026-04-19 04:12 51.30755 0.42376 23313 ft 424 kts 88°
2026-04-19 04:13 51.30661 0.47105 23830 ft 428 kts 88°
2026-04-19 04:13 51.30563 0.51876 24347 ft 432 kts 88°
2026-04-19 04:13 51.30454 0.56690 24839 ft 436 kts 90°
2026-04-19 04:13 51.30028 0.61527 25338 ft 443 kts 100°
2026-04-19 04:14 51.29198 0.66290 25818 ft 447 kts 104°
2026-04-19 04:14 51.28317 0.71075 26282 ft 451 kts 104°
2026-04-19 04:14 51.27435 0.75895 26735 ft 454 kts 104°
2026-04-19 04:14 51.26552 0.80753 27194 ft 457 kts 104°
2026-04-19 04:15 51.25665 0.85629 27656 ft 459 kts 104°
2026-04-19 04:15 51.24770 0.90530 28078 ft 462 kts 105°
2026-04-19 04:15 51.23872 0.95395 28498 ft 464 kts 105°
2026-04-19 04:15 51.22954 1.00354 28912 ft 468 kts 105°
2026-04-19 04:16 51.22023 1.05338 29326 ft 470 kts 105°
2026-04-19 04:16 51.21082 1.10350 29715 ft 473 kts 105°
2026-04-19 04:16 51.20139 1.15384 30088 ft 475 kts 105°
2026-04-19 04:16 51.19183 1.20449 30467 ft 478 kts 106°
2026-04-19 04:17 51.18221 1.25529 30842 ft 480 kts 106°
2026-04-19 04:17 51.17253 1.30635 31195 ft 482 kts 106°
2026-04-19 04:17 51.16413 1.35809 31522 ft 483 kts 99°
2026-04-19 04:17 51.16006 1.41127 31833 ft 484 kts 92°
2026-04-19 04:18 51.15768 1.46479 32230 ft 484 kts 92°
2026-04-19 04:18 51.15519 1.51818 32691 ft 483 kts 93°
2026-04-19 04:18 51.15258 1.57136 33131 ft 481 kts 94°
2026-04-19 04:18 51.14993 1.62443 33547 ft 480 kts 94°
2026-04-19 04:19 51.14728 1.67742 33955 ft 479 kts 94°
2026-04-19 04:19 51.14464 1.73032 34352 ft 479 kts 94°
2026-04-19 04:19 51.14197 1.78312 34758 ft 478 kts 94°
2026-04-19 04:19 51.13932 1.83587 35129 ft 478 kts 94°
2026-04-19 04:20 51.13664 1.88863 35253 ft 477 kts 94°
2026-04-19 04:20 51.13394 1.94071 35276 ft 468 kts 94°
2026-04-19 04:20 51.12848 2.04340 35272 ft 464 kts 95°
2026-04-19 04:21 51.12295 2.14579 35267 ft 464 kts 95°
2026-04-19 04:21 51.11751 2.24753 35262 ft 464 kts 95°
2026-04-19 04:22 51.11200 2.34976 35272 ft 464 kts 95°
2026-04-19 04:22 51.10626 2.45195 35261 ft 463 kts 96°
2026-04-19 04:23 51.10040 2.55397 35258 ft 463 kts 96°
2026-04-19 04:23 51.09327 2.65573 35247 ft 462 kts 103°
2026-04-19 04:24 51.07617 2.75417 35241 ft 462 kts 108°
2026-04-19 04:24 51.05837 2.85243 35245 ft 463 kts 108°
2026-04-19 04:25 51.04045 2.95068 35244 ft 462 kts 108°
2026-04-19 04:25 51.02244 3.04869 35242 ft 462 kts 108°
2026-04-19 04:26 51.00439 3.14666 35240 ft 462 kts 108°
2026-04-19 04:26 50.98630 3.24460 35241 ft 462 kts 108°
2026-04-19 04:27 50.96810 3.34246 35242 ft 462 kts 108°
2026-04-19 04:27 50.94982 3.44017 35244 ft 462 kts 109°
2026-04-19 04:28 50.93153 3.53773 35239 ft 462 kts 109°
2026-04-19 04:28 50.91306 3.63524 35238 ft 462 kts 109°
2026-04-19 04:29 50.89438 3.73266 35234 ft 462 kts 109°
2026-04-19 04:29 50.87552 3.82996 35233 ft 462 kts 109°
2026-04-19 04:30 50.85667 3.92717 35228 ft 462 kts 110°
2026-04-19 04:30 50.83768 4.02432 35226 ft 462 kts 110°
2026-04-19 04:31 50.81863 4.12126 35225 ft 461 kts 110°
2026-04-19 04:31 50.79951 4.21806 35222 ft 461 kts 110°
2026-04-19 04:32 50.78051 4.31412 35215 ft 461 kts 110°
2026-04-19 04:32 50.76131 4.41071 35210 ft 461 kts 111°
2026-04-19 04:33 50.74201 4.50720 35210 ft 461 kts 111°
2026-04-19 04:33 50.72251 4.60365 35213 ft 461 kts 111°
2026-04-19 04:34 50.70345 4.70033 35215 ft 462 kts 110°
2026-04-19 04:34 50.68491 4.79717 35215 ft 461 kts 110°
2026-04-19 04:35 50.66625 4.89377 35213 ft 461 kts 110°
2026-04-19 04:35 50.64703 4.98999 35211 ft 460 kts 111°
2026-04-19 04:36 50.62715 5.08583 35212 ft 460 kts 112°
2026-04-19 04:36 50.60717 5.18156 35211 ft 460 kts 112°
2026-04-19 04:37 50.58731 5.27726 35207 ft 460 kts 112°
2026-04-19 04:37 50.56747 5.37300 35208 ft 461 kts 112°
2026-04-19 04:38 50.54748 5.46874 35209 ft 460 kts 112°
2026-04-19 04:38 50.52730 5.56427 35212 ft 461 kts 112°
2026-04-19 04:39 50.50720 5.65994 35214 ft 461 kts 111°
2026-04-19 04:39 50.48892 5.75684 34929 ft 462 kts 110°
2026-04-19 04:40 50.48026 5.80530 34677 ft 461 kts 110°
2026-04-19 04:40 50.47160 5.85365 34425 ft 459 kts 110°
2026-04-19 04:40 50.46285 5.90171 34152 ft 456 kts 111°
2026-04-19 04:40 50.45400 5.94939 33608 ft 454 kts 111°
2026-04-19 04:41 50.44501 5.99682 33039 ft 453 kts 112°
2026-04-19 04:41 50.43595 6.04411 32481 ft 452 kts 112°
2026-04-19 04:41 50.42691 6.09119 31912 ft 450 kts 113°
2026-04-19 04:41 50.41792 6.13811 31381 ft 448 kts 113°
2026-04-19 04:42 50.40910 6.18417 30853 ft 446 kts 114°
2026-04-19 04:42 50.40021 6.23058 30330 ft 443 kts 114°
2026-04-19 04:42 50.39136 6.27669 29822 ft 440 kts 114°
2026-04-19 04:42 50.38256 6.32242 29328 ft 437 kts 114°
2026-04-19 04:43 50.37380 6.36784 28855 ft 433 kts 114°
2026-04-19 04:43 50.36564 6.41305 28416 ft 432 kts 109°
2026-04-19 04:43 50.36143 6.45976 27974 ft 434 kts 101°
2026-04-19 04:43 50.35865 6.50657 27521 ft 430 kts 101°
2026-04-19 04:44 50.35584 6.55292 27078 ft 425 kts 101°
2026-04-19 04:44 50.35295 6.59879 26620 ft 421 kts 101°
2026-04-19 04:44 50.35001 6.64423 26160 ft 418 kts 101°
2026-04-19 04:44 50.34707 6.68926 25684 ft 414 kts 101°
2026-04-19 04:45 50.34413 6.73398 25209 ft 411 kts 101°
2026-04-19 04:45 50.34125 6.77838 24725 ft 409 kts 101°
2026-04-19 04:45 50.33846 6.82254 24235 ft 406 kts 101°
2026-04-19 04:45 50.33318 6.86542 23755 ft 397 kts 112°
2026-04-19 04:46 50.32342 6.90524 23280 ft 388 kts 121°
2026-04-19 04:46 50.31205 6.94331 22823 ft 385 kts 121°
2026-04-19 04:46 50.30073 6.98112 22364 ft 382 kts 121°
2026-04-19 04:46 50.28948 7.01869 21904 ft 381 kts 121°
2026-04-19 04:47 50.27826 7.05617 21388 ft 380 kts 121°
2026-04-19 04:47 50.26707 7.09356 20889 ft 379 kts 120°
2026-04-19 04:47 50.25591 7.13083 20382 ft 378 kts 120°
2026-04-19 04:47 50.24479 7.16791 19964 ft 374 kts 120°
2026-04-19 04:48 50.23376 7.20472 19507 ft 372 kts 120°
2026-04-19 04:48 50.22284 7.24119 18994 ft 372 kts 120°
2026-04-19 04:48 50.21193 7.27748 18647 ft 367 kts 120°
2026-04-19 04:48 50.20111 7.31336 18219 ft 364 kts 119°
2026-04-19 04:49 50.19087 7.34880 17791 ft 363 kts 116°
2026-04-19 04:49 50.18144 7.38577 17364 ft 361 kts 114°
2026-04-19 04:49 50.17286 7.42241 16883 ft 357 kts 113°
2026-04-19 04:49 50.16477 7.45822 16130 ft 353 kts 112°
2026-04-19 04:50 50.15669 7.49391 15588 ft 344 kts 113°
2026-04-19 04:50 50.14675 7.52673 15132 ft 327 kts 129°
2026-04-19 04:50 50.13150 7.55230 14750 ft 313 kts 146°
2026-04-19 04:50 50.11460 7.57278 14503 ft 311 kts 146°
2026-04-19 04:51 50.09751 7.59341 14268 ft 310 kts 146°
2026-04-19 04:51 50.08050 7.61397 14007 ft 308 kts 146°
2026-04-19 04:51 50.06357 7.63449 13752 ft 309 kts 146°
2026-04-19 04:51 50.04661 7.65505 13506 ft 308 kts 146°
2026-04-19 04:52 50.02969 7.67545 13256 ft 308 kts 146°
2026-04-19 04:52 50.01285 7.69576 13006 ft 305 kts 146°
2026-04-19 04:52 49.99606 7.71598 12746 ft 306 kts 146°
2026-04-19 04:52 49.97928 7.73604 12502 ft 303 kts 146°
2026-04-19 04:53 49.96257 7.75595 12252 ft 302 kts 146°
2026-04-19 04:53 49.94590 7.77581 12001 ft 302 kts 146°
2026-04-19 04:53 49.92929 7.79565 11750 ft 301 kts 146°
2026-04-19 04:53 49.91274 7.81541 11499 ft 299 kts 146°
2026-04-19 04:54 49.89639 7.83528 11254 ft 297 kts 141°
2026-04-19 04:54 49.88337 7.86003 10928 ft 299 kts 121°
2026-04-19 04:54 49.87628 7.89026 10545 ft 301 kts 101°
2026-04-19 04:54 49.87599 7.92264 10135 ft 302 kts 81°
2026-04-19 04:55 49.88132 7.95417 9729 ft 302 kts 74°
2026-04-19 04:55 49.88714 7.98541 9323 ft 300 kts 74°
2026-04-19 04:55 49.89287 8.01662 8889 ft 300 kts 74°
2026-04-19 04:55 49.89849 8.04754 8467 ft 297 kts 74°
2026-04-19 04:56 49.90412 8.07830 8037 ft 296 kts 75°
2026-04-19 04:56 49.90975 8.10897 7516 ft 295 kts 74°
2026-04-19 04:56 49.91344 8.12917 7222 ft 293 kts 74°
2026-04-19 04:56 49.92076 8.16958 6620 ft 289 kts 74°
2026-04-19 04:57 49.92433 8.18927 6336 ft 282 kts 73°
2026-04-19 04:57 49.92950 8.21785 5909 ft 268 kts 74°
2026-04-19 04:57 49.93594 8.25367 5376 ft 253 kts 73°
2026-04-19 04:57 49.93907 8.27124 5108 ft 247 kts 73°
2026-04-19 04:58 49.94354 8.29647 4718 ft 238 kts 73°
2026-04-19 04:58 49.94789 8.32084 4335 ft 230 kts 73°
2026-04-19 04:58 49.95235 8.34423 3978 ft 221 kts 64°
2026-04-19 04:58 49.96105 8.36292 3626 ft 210 kts 38°
2026-04-19 04:59 49.97218 8.37710 3295 ft 204 kts 37°
2026-04-19 04:59 49.98294 8.39104 2948 ft 197 kts 37°
2026-04-19 04:59 49.99301 8.40425 2646 ft 181 kts 38°
2026-04-19 04:59 50.00010 8.41950 2327 ft 172 kts 65°
2026-04-19 05:00 50.00403 8.43620 2061 ft 162 kts 66°
2026-04-19 05:00 50.00788 8.45233 1774 ft 156 kts 65°
2026-04-19 05:00 50.01162 8.46792 1503 ft 152 kts 66°
2026-04-19 05:00 50.01527 8.48325 1221 ft 151 kts 66°
2026-04-19 05:01 50.01893 8.49861 922 ft 150 kts 66°
2026-04-19 05:01 50.02256 8.51361 692 ft 146 kts 66°
2026-04-19 05:01 50.02613 8.52844 466 ft 146 kts 66°
2026-04-19 05:01 50.02968 8.54304 345 ft 139 kts 67°
2026-04-19 05:02 50.03265 8.55539 342 ft 99 kts 69°
2026-04-19 05:02 50.03444 8.56296 360 ft 50 kts 69°
2026-04-19 05:02 50.03534 8.56675 353 ft 36 kts 70°
2026-04-19 05:02 50.03620 8.56949 353 ft 26 kts 54°
2026-04-19 05:03 50.03748 8.57146 358 ft 25 kts 38°
2026-04-19 05:03 50.03859 8.57285 364 ft 17 kts 39°
2026-04-19 05:03 50.03946 8.57405 364 ft 17 kts 51°
2026-04-19 05:03 50.03996 8.57570 365 ft 16 kts 70°
2026-04-19 05:04 50.04028 8.57710 366 ft 13 kts 70°
2026-04-19 05:04 50.04058 8.57814 366 ft 9 kts 52°
2026-04-19 05:04 50.04113 8.57815 365 ft 9 kts 338°
2026-04-19 05:04 50.04182 8.57773 363 ft 13 kts 339°
2026-04-19 05:05 50.04279 8.57716 362 ft 15 kts 340°
2026-04-19 05:05 50.04373 8.57663 364 ft 11 kts 340°
2026-04-19 05:05 50.04428 8.57632 369 ft 8 kts 343°
2026-04-19 05:05 50.04461 8.57677 364 ft 7 kts 69°
2026-04-19 05:06 50.04477 8.57741 364 ft 6 kts 70°
2026-04-19 05:06 50.04491 8.57799 364 ft 5 kts 70°
2026-04-19 05:06 50.04508 8.57873 364 ft 12 kts 70°
2026-04-19 05:06 50.04542 8.58000 366 ft 13 kts 55°
2026-04-19 05:07 50.04633 8.58005 359 ft 17 kts 339°
2026-04-19 05:07 50.04708 8.57903 358 ft 15 kts 265°
2026-04-19 05:07 50.04670 8.57743 358 ft 17 kts 249°
2026-04-19 05:07 50.04628 8.57565 358 ft 18 kts 249°
2026-04-19 05:08 50.04581 8.57369 361 ft 20 kts 246°
2026-04-19 05:08 50.04476 8.56929 359 ft 22 kts 249°
2026-04-19 05:08 50.04420 8.56697 358 ft 24 kts 250°
2026-04-19 05:09 50.04359 8.56442 356 ft 26 kts 249°
2026-04-19 05:09 50.04294 8.56173 355 ft 26 kts 250°
2026-04-19 05:09 50.04230 8.55907 354 ft 24 kts 249°
2026-04-19 05:09 50.04174 8.55670 357 ft 23 kts 250°
2026-04-19 05:10 50.04119 8.55442 352 ft 23 kts 249°
2026-04-19 05:10 50.04065 8.55212 353 ft 23 kts 249°
2026-04-19 05:10 50.04016 8.55010 353 ft 10 kts 246°
2026-04-19 05:10 50.03950 8.54981 352 ft 13 kts 159°
2026-04-19 05:11 50.03861 8.55041 352 ft 13 kts 141°
2026-04-19 05:11 50.03864 8.55180 349 ft 14 kts 70°
2026-04-19 05:11 50.03902 8.55337 355 ft 16 kts 69°
2026-04-19 05:11 50.03945 8.55511 353 ft 18 kts 69°
2026-04-19 05:12 50.03991 8.55709 354 ft 20 kts 70°
2026-04-19 05:12 50.04043 8.55920 351 ft 21 kts 69°
2026-04-19 05:12 50.04095 8.56144 352 ft 22 kts 69°
2026-04-19 05:12 50.04144 8.56279 356 ft 11 kts 26°
2026-04-19 05:13 50.04218 8.56253 354 ft 12 kts 339°
2026-04-19 05:13 50.04289 8.56185 359 ft 12 kts 292°
2026-04-19 05:13 50.04265 8.56049 357 ft 11 kts 249°
2026-04-19 05:13 50.04211 8.56043 354 ft 9 kts 156°
2026-04-19 05:14 50.04168 8.56067 355 ft 2 kts 160°
2026-04-19 05:14 50.04165 8.56069 353 ft 0 kts 160°
2026-04-19 05:41 50.04175 8.56097 353 ft 0 kts 160°